ACA326 CYYC-CYUL

Flight info

Callsign ACA326
Flight time N/A
Altitude 39000
Route DCT LOMLO Q961 DAPOP DCT ODGOV DCT EMLIK DCT UDBOX DCT AGLIN DCT BUDAG DCT BEMOG LFLER7
Aircraft A333/H-SDE3GHIJ2J3J5M1RVWXY/LB2D1

Departure

Time 2026-05-05 20:32
Airport Calgary International Airport (CYYC)

Arrival

Time N/A
Airport Montreal / Pierre Elliott Trudeau International Airport (CYUL)
Time Latitude Longitude Altitude Speed Heading
2026-05-05 19:31 51.12796 -114.00508 3561 ft 0 kts 90°
2026-05-05 20:18 51.12796 -114.00521 3563 ft 4 kts 90°
2026-05-05 20:18 51.12796 -114.00563 3563 ft 4 kts 90°
2026-05-05 20:18 51.12796 -114.00600 3553 ft 4 kts 99°
2026-05-05 20:19 51.12805 -114.00635 3556 ft 4 kts 149°
2026-05-05 20:19 51.12830 -114.00645 3562 ft 4 kts 181°
2026-05-05 20:19 51.12855 -114.00643 3562 ft 2 kts 180°
2026-05-05 20:19 51.12856 -114.00643 3562 ft 0 kts 180°
2026-05-05 20:23 51.12835 -114.00643 3558 ft 6 kts 180°
2026-05-05 20:23 51.12788 -114.00643 3559 ft 7 kts 180°
2026-05-05 20:23 51.12737 -114.00643 3557 ft 8 kts 180°
2026-05-05 20:23 51.12682 -114.00643 3561 ft 8 kts 180°
2026-05-05 20:24 51.12627 -114.00629 3560 ft 7 kts 146°
2026-05-05 20:24 51.12613 -114.00551 3555 ft 11 kts 92°
2026-05-05 20:24 51.12613 -114.00398 3563 ft 15 kts 90°
2026-05-05 20:24 51.12613 -114.00232 3563 ft 15 kts 90°
2026-05-05 20:25 51.12613 -114.00067 3563 ft 15 kts 90°
2026-05-05 20:25 51.12613 -113.99907 3563 ft 15 kts 90°
2026-05-05 20:25 51.12612 -113.99744 3563 ft 14 kts 90°
2026-05-05 20:25 51.12612 -113.99589 3563 ft 14 kts 90°
2026-05-05 20:26 51.12607 -113.99466 3555 ft 8 kts 116°
2026-05-05 20:26 51.12553 -113.99445 3558 ft 12 kts 180°
2026-05-05 20:26 51.12431 -113.99446 3559 ft 20 kts 180°
2026-05-05 20:26 51.12287 -113.99446 3561 ft 21 kts 180°
2026-05-05 20:27 51.12144 -113.99446 3562 ft 21 kts 180°
2026-05-05 20:27 51.12001 -113.99447 3561 ft 21 kts 180°
2026-05-05 20:27 51.11858 -113.99447 3558 ft 20 kts 180°
2026-05-05 20:27 51.11716 -113.99447 3558 ft 20 kts 180°
2026-05-05 20:28 51.11622 -113.99447 3555 ft 20 kts 180°
2026-05-05 20:28 51.11481 -113.99447 3559 ft 20 kts 180°
2026-05-05 20:28 51.11338 -113.99448 3558 ft 20 kts 180°
2026-05-05 20:28 51.11150 -113.99448 3556 ft 19 kts 180°
2026-05-05 20:29 51.11065 -113.99442 3562 ft 9 kts 162°
2026-05-05 20:29 51.11034 -113.99367 3560 ft 8 kts 102°
2026-05-05 20:29 51.11032 -113.99311 3561 ft 6 kts 89°
2026-05-05 20:29 51.11033 -113.99261 3564 ft 3 kts 89°
2026-05-05 20:30 51.11033 -113.99236 3565 ft 5 kts 90°
2026-05-05 20:30 51.11033 -113.99179 3566 ft 4 kts 90°
2026-05-05 20:30 51.11033 -113.99123 3567 ft 6 kts 90°
2026-05-05 20:30 51.11039 -113.99060 3568 ft 6 kts 62°
2026-05-05 20:31 51.11075 -113.99041 3560 ft 6 kts
2026-05-05 20:31 51.11159 -113.99037 3563 ft 29 kts
2026-05-05 20:31 51.11561 -113.99037 3565 ft 86 kts
2026-05-05 20:31 51.12341 -113.99036 3563 ft 137 kts
2026-05-05 20:32 51.13451 -113.99041 3670 ft 175 kts
2026-05-05 20:32 51.14647 -113.99059 4696 ft 166 kts 359°
2026-05-05 20:32 51.15788 -113.99097 5484 ft 163 kts 356°
2026-05-05 20:32 51.16940 -113.99230 5935 ft 169 kts 356°
2026-05-05 20:33 51.18118 -113.99366 6452 ft 170 kts 356°
2026-05-05 20:33 51.19314 -113.99480 6910 ft 178 kts 357°
2026-05-05 20:33 51.20608 -113.99295 7141 ft 198 kts 15°
2026-05-05 20:33 51.21833 -113.98088 7300 ft 224 kts 48°
2026-05-05 20:34 51.22484 -113.95687 7497 ft 250 kts 75°
2026-05-05 20:34 51.22588 -113.92806 7765 ft 269 kts 90°
2026-05-05 20:34 51.22366 -113.89817 8208 ft 279 kts 97°
2026-05-05 20:34 51.22008 -113.86751 8766 ft 284 kts 98°
2026-05-05 20:35 51.21630 -113.83644 9348 ft 287 kts 98°
2026-05-05 20:35 51.21282 -113.80491 9921 ft 290 kts 96°
2026-05-05 20:35 51.20971 -113.77259 10316 ft 300 kts 95°
2026-05-05 20:35 51.20690 -113.73872 10541 ft 314 kts 94°
2026-05-05 20:36 51.20425 -113.70338 10762 ft 328 kts 94°
2026-05-05 20:36 51.20165 -113.66689 10996 ft 340 kts 93°
2026-05-05 20:36 51.19896 -113.62904 11406 ft 346 kts 93°
2026-05-05 20:36 51.19619 -113.59059 11901 ft 350 kts 93°
2026-05-05 20:37 51.19336 -113.55190 12391 ft 353 kts 92°
2026-05-05 20:37 51.19048 -113.51285 12897 ft 356 kts 92°
2026-05-05 20:37 51.18754 -113.47344 13398 ft 360 kts 92°
2026-05-05 20:37 51.18457 -113.43369 13918 ft 362 kts 92°
2026-05-05 20:38 51.18156 -113.39381 14477 ft 362 kts 92°
2026-05-05 20:38 51.17854 -113.35398 14936 ft 364 kts 91°
2026-05-05 20:38 51.17547 -113.31368 15356 ft 367 kts 90°
2026-05-05 20:38 51.17237 -113.27309 15781 ft 370 kts 90°
2026-05-05 20:39 51.16928 -113.23272 16203 ft 373 kts 89°
2026-05-05 20:39 51.16612 -113.19155 16643 ft 376 kts 89°
2026-05-05 20:39 51.16292 -113.15014 17091 ft 378 kts 88°
2026-05-05 20:39 51.15967 -113.10841 17528 ft 381 kts 88°
2026-05-05 20:40 51.15638 -113.06638 17952 ft 383 kts 87°
2026-05-05 20:40 51.15307 -113.02406 18354 ft 386 kts 86°
2026-05-05 20:40 51.14972 -112.98153 18690 ft 388 kts 86°
2026-05-05 20:40 51.14630 -112.93869 19023 ft 391 kts 86°
2026-05-05 20:41 51.14283 -112.89558 19356 ft 393 kts 86°
2026-05-05 20:41 51.13933 -112.85224 19783 ft 393 kts 87°
2026-05-05 20:41 51.13587 -112.80959 20179 ft 394 kts 86°
2026-05-05 20:41 51.13237 -112.76627 20484 ft 396 kts 86°
2026-05-05 20:42 51.12884 -112.72248 20813 ft 398 kts 86°
2026-05-05 20:42 51.12529 -112.67866 21141 ft 400 kts 86°
2026-05-05 20:42 51.12170 -112.63473 21462 ft 401 kts 86°
2026-05-05 20:42 51.11807 -112.59051 21797 ft 403 kts 85°
2026-05-05 20:43 51.11443 -112.54658 22105 ft 405 kts 85°
2026-05-05 20:43 51.11072 -112.50192 22437 ft 407 kts 85°
2026-05-05 20:43 51.10697 -112.45706 22755 ft 409 kts 85°
2026-05-05 20:43 51.10318 -112.41189 23074 ft 411 kts 85°
2026-05-05 20:44 51.09938 -112.36681 23389 ft 413 kts 84°
2026-05-05 20:44 51.09558 -112.32199 23779 ft 414 kts 84°
2026-05-05 20:44 51.09168 -112.27652 24095 ft 415 kts 84°
2026-05-05 20:44 51.08777 -112.23071 24295 ft 418 kts 84°
2026-05-05 20:45 51.07985 -112.13858 24759 ft 422 kts 84°
2026-05-05 20:45 51.07582 -112.09207 25016 ft 424 kts 84°
2026-05-05 20:45 51.07181 -112.04606 25254 ft 426 kts 84°
2026-05-05 20:46 51.06768 -111.99906 25480 ft 428 kts 84°
2026-05-05 20:46 51.06354 -111.95199 25719 ft 430 kts 84°
2026-05-05 20:46 51.05936 -111.90478 25950 ft 432 kts 84°
2026-05-05 20:46 51.05515 -111.85743 26195 ft 434 kts 84°
2026-05-05 20:47 51.05088 -111.80962 26429 ft 436 kts 84°
2026-05-05 20:47 51.04660 -111.76190 26726 ft 438 kts 85°
2026-05-05 20:47 51.04228 -111.71378 26928 ft 440 kts 85°
2026-05-05 20:47 51.03795 -111.66603 27169 ft 442 kts 85°
2026-05-05 20:48 51.03354 -111.61756 27420 ft 444 kts 85°
2026-05-05 20:48 51.02909 -111.56899 27646 ft 445 kts 85°
2026-05-05 20:48 51.02460 -111.52019 27869 ft 447 kts 85°
2026-05-05 20:48 51.02008 -111.47115 28099 ft 449 kts 85°
2026-05-05 20:49 51.01551 -111.42186 28346 ft 451 kts 85°
2026-05-05 20:49 51.01090 -111.37243 28588 ft 452 kts 85°
2026-05-05 20:49 51.00627 -111.32292 28818 ft 454 kts 85°
2026-05-05 20:49 51.00164 -111.27370 29040 ft 456 kts 85°
2026-05-05 20:50 50.99690 -111.22356 29344 ft 458 kts 85°
2026-05-05 20:50 50.99212 -111.17343 29664 ft 458 kts 85°
2026-05-05 20:50 50.98734 -111.12341 29884 ft 459 kts 84°
2026-05-05 20:50 50.98259 -111.07373 30095 ft 461 kts 84°
2026-05-05 20:51 50.97773 -111.02319 30304 ft 463 kts 84°
2026-05-05 20:51 50.97284 -110.97251 30489 ft 465 kts 84°
2026-05-05 20:51 50.96789 -110.92153 30670 ft 467 kts 84°
2026-05-05 20:51 50.96288 -110.87034 30873 ft 468 kts 85°
2026-05-05 20:52 50.95785 -110.81913 31076 ft 470 kts 85°
2026-05-05 20:52 50.95277 -110.76777 31283 ft 471 kts 85°
2026-05-05 20:52 50.94773 -110.71695 31493 ft 473 kts 85°
2026-05-05 20:52 50.94258 -110.66515 31810 ft 473 kts 85°
2026-05-05 20:53 50.93741 -110.61354 32119 ft 473 kts 85°
2026-05-05 20:53 50.93228 -110.56263 32457 ft 473 kts 86°
2026-05-05 20:53 50.92705 -110.51103 32807 ft 472 kts 86°
2026-05-05 20:53 50.92183 -110.45969 33159 ft 472 kts 86°
2026-05-05 20:54 50.91658 -110.40831 33515 ft 471 kts 86°
2026-05-05 20:54 50.91134 -110.35714 33879 ft 470 kts 86°
2026-05-05 20:54 50.90613 -110.30638 34251 ft 469 kts 86°
2026-05-05 20:54 50.90086 -110.25532 34523 ft 469 kts 86°
2026-05-05 20:55 50.89556 -110.20421 34771 ft 469 kts 87°
2026-05-05 20:55 50.89024 -110.15296 35015 ft 470 kts 87°
2026-05-05 20:55 50.88498 -110.10238 35291 ft 471 kts 89°
2026-05-05 20:55 50.87962 -110.05113 35498 ft 472 kts 89°
2026-05-05 20:56 50.87506 -109.99985 35728 ft 467 kts 85°
2026-05-05 20:56 50.87224 -109.94857 35958 ft 466 kts 84°
2026-05-05 20:56 50.86981 -109.89742 36186 ft 465 kts 84°
2026-05-05 20:56 50.86761 -109.84630 36401 ft 466 kts 84°
2026-05-05 20:57 50.86551 -109.79506 36609 ft 466 kts 84°
2026-05-05 20:57 50.86342 -109.74383 36816 ft 466 kts 85°
2026-05-05 20:57 50.86129 -109.69241 37025 ft 467 kts 85°
2026-05-05 20:57 50.85915 -109.64169 37231 ft 467 kts 85°
2026-05-05 20:58 50.85694 -109.59029 37495 ft 468 kts 86°
2026-05-05 20:58 50.85469 -109.53888 37695 ft 468 kts 87°
2026-05-05 20:58 50.85240 -109.48735 37876 ft 469 kts 87°
2026-05-05 20:58 50.85007 -109.43584 38074 ft 469 kts 87°
2026-05-05 20:59 50.84771 -109.38419 38262 ft 469 kts 87°
2026-05-05 20:59 50.84537 -109.33323 38462 ft 469 kts 88°
2026-05-05 20:59 50.84297 -109.28161 38655 ft 469 kts 88°
2026-05-05 20:59 50.84055 -109.23004 38845 ft 469 kts 88°
2026-05-05 21:00 50.83814 -109.17906 38991 ft 470 kts 88°
2026-05-05 21:00 50.83568 -109.12741 39146 ft 470 kts 88°
2026-05-05 21:00 50.83068 -109.02372 39235 ft 474 kts 88°
2026-05-05 21:01 50.82558 -108.92030 39227 ft 474 kts 89°
2026-05-05 21:01 50.82035 -108.81632 39227 ft 473 kts 89°
2026-05-05 21:02 50.81506 -108.71280 39227 ft 473 kts 89°
2026-05-05 21:02 50.80965 -108.60867 39225 ft 474 kts 89°
2026-05-05 21:03 50.80419 -108.50544 39225 ft 474 kts 89°
2026-05-05 21:03 50.79861 -108.40151 39222 ft 474 kts 89°
2026-05-05 21:04 50.79292 -108.29735 39222 ft 475 kts 89°
2026-05-05 21:04 50.78714 -108.19333 39216 ft 475 kts 89°
2026-05-05 21:05 50.78129 -108.08990 39214 ft 475 kts 89°
2026-05-05 21:05 50.77532 -107.98580 39211 ft 474 kts 90°
2026-05-05 21:06 50.76925 -107.88170 39209 ft 474 kts 90°
2026-05-05 21:06 50.76314 -107.77845 39205 ft 474 kts 90°
2026-05-05 21:07 50.75688 -107.67428 39203 ft 474 kts 90°
2026-05-05 21:07 50.75059 -107.57101 39228 ft 475 kts 90°
2026-05-05 21:08 50.74416 -107.46707 39201 ft 474 kts 90°
2026-05-05 21:08 50.73768 -107.36383 39201 ft 475 kts 90°
2026-05-05 21:09 50.73105 -107.25970 39194 ft 475 kts 90°
2026-05-05 21:09 50.72437 -107.15637 39196 ft 475 kts 91°
2026-05-05 21:10 50.71756 -107.05249 39220 ft 475 kts 91°
2026-05-05 21:10 50.71066 -106.94859 39192 ft 475 kts 91°
2026-05-05 21:11 50.70371 -106.84533 39189 ft 475 kts 91°
2026-05-05 21:11 50.69663 -106.74154 39188 ft 476 kts 91°
2026-05-05 21:12 50.68945 -106.63776 39189 ft 476 kts 91°
2026-05-05 21:12 50.68218 -106.53379 39210 ft 476 kts 91°
2026-05-05 21:13 50.67486 -106.43049 39181 ft 476 kts 92°
2026-05-05 21:13 50.66864 -106.34399 39181 ft 476 kts 92°
2026-05-05 21:14 50.65985 -106.22300 39179 ft 477 kts 92°
2026-05-05 21:14 50.65348 -106.13653 39178 ft 477 kts 92°
2026-05-05 21:15 50.64573 -106.03247 39187 ft 477 kts 92°
2026-05-05 21:15 50.63796 -105.92922 39170 ft 477 kts 93°
2026-05-05 21:16 50.63003 -105.82534 39162 ft 477 kts 93°
2026-05-05 21:16 50.62202 -105.72147 39152 ft 477 kts 93°
2026-05-05 21:17 50.61390 -105.61754 39152 ft 477 kts 93°
2026-05-05 21:17 50.60570 -105.51373 39163 ft 477 kts 94°
2026-05-05 21:18 50.59753 -105.41027 39149 ft 477 kts 93°
2026-05-05 21:18 50.59012 -105.30686 39152 ft 477 kts 92°
2026-05-05 21:19 50.58292 -105.20330 39154 ft 477 kts 93°
2026-05-05 21:19 50.57554 -105.09926 39157 ft 477 kts 93°
2026-05-05 21:20 50.56804 -104.99577 39122 ft 478 kts 94°
2026-05-05 21:20 50.56036 -104.89165 39116 ft 478 kts 94°
2026-05-05 21:21 50.55262 -104.78801 39093 ft 478 kts 94°
2026-05-05 21:21 50.54477 -104.68407 39091 ft 478 kts 94°
2026-05-05 21:22 50.53687 -104.58076 39085 ft 478 kts 94°
2026-05-05 21:22 50.52883 -104.47682 39098 ft 478 kts 94°
2026-05-05 21:23 50.52074 -104.37345 39106 ft 478 kts 94°
2026-05-05 21:23 50.51251 -104.26947 39112 ft 479 kts 94°
2026-05-05 21:24 50.50418 -104.16550 39122 ft 479 kts 94°
2026-05-05 21:24 50.49580 -104.06206 39125 ft 479 kts 94°
2026-05-05 21:25 50.48728 -103.95813 39120 ft 478 kts 95°
2026-05-05 21:25 50.47874 -103.85498 39118 ft 479 kts 95°
2026-05-05 21:26 50.47004 -103.75113 39117 ft 479 kts 95°
2026-05-05 21:26 50.46125 -103.64743 39118 ft 479 kts 95°
2026-05-05 21:27 50.45244 -103.54442 39116 ft 479 kts 95°
2026-05-05 21:27 50.44346 -103.44066 39111 ft 479 kts 95°
2026-05-05 21:28 50.43439 -103.33697 39111 ft 479 kts 95°
2026-05-05 21:28 50.42528 -103.23381 39107 ft 479 kts 95°
2026-05-05 21:29 50.41602 -103.13019 39111 ft 479 kts 95°
2026-05-05 21:29 50.40673 -103.02712 39118 ft 479 kts 95°
2026-05-05 21:30 50.39728 -102.92351 39108 ft 479 kts 96°
2026-05-05 21:30 50.38774 -102.81990 39105 ft 479 kts 96°
2026-05-05 21:31 50.37819 -102.71709 39105 ft 479 kts 96°
2026-05-05 21:31 50.36852 -102.61411 39102 ft 479 kts 96°
2026-05-05 21:32 50.35871 -102.51087 39105 ft 479 kts 96°
2026-05-05 21:32 50.34655 -102.40809 39099 ft 479 kts 99°
2026-05-05 21:33 50.33260 -102.30591 39102 ft 480 kts 99°
2026-05-05 21:33 50.31863 -102.20445 39099 ft 480 kts 99°
2026-05-05 21:34 50.30475 -102.10238 39098 ft 476 kts 99°
2026-05-05 21:34 50.29101 -102.00108 39100 ft 475 kts 99°
2026-05-05 21:35 50.27729 -101.90040 39094 ft 475 kts 99°
2026-05-05 21:35 50.26340 -101.79916 39094 ft 476 kts 99°
2026-05-05 21:36 50.24944 -101.69820 39095 ft 477 kts 100°
2026-05-05 21:36 50.23531 -101.59683 39091 ft 477 kts 100°
2026-05-05 21:37 50.22107 -101.49536 39097 ft 477 kts 100°
2026-05-05 21:37 50.20683 -101.39448 39089 ft 477 kts 100°
2026-05-05 21:38 50.19249 -101.29366 39092 ft 477 kts 100°
2026-05-05 21:38 50.17800 -101.19242 39093 ft 477 kts 100°
2026-05-05 21:39 50.16343 -101.09125 39085 ft 477 kts 100°
2026-05-05 21:39 50.14884 -100.99069 39089 ft 477 kts 101°
2026-05-05 21:40 50.13411 -100.88975 39083 ft 477 kts 101°
2026-05-05 21:40 50.11926 -100.78873 39082 ft 478 kts 101°
2026-05-05 21:41 50.10439 -100.68814 39088 ft 478 kts 101°
2026-05-05 21:41 50.08933 -100.58698 39087 ft 478 kts 101°